TimeCDT,TemperatureF,Dew PointF,Humidity,Sea Level PressureIn,VisibilityMPH,Wind Direction,Wind SpeedMPH,Gust SpeedMPH,PrecipitationIn,Events,Conditions,WindDirDegrees,DateUTC
12:54 AM,48.0,46.9,96,29.89,10.0,Calm,Calm,-,N/A,,Partly Cloudy,0,2012-10-02 05:54:00
1:42 AM,44.6,44.6,100,29.89,2.5,Calm,Calm,-,N/A,,Clear,0,2012-10-02 06:42:00
1:51 AM,44.6,42.8,93,29.89,0.8,Calm,Calm,-,N/A,,Clear,0,2012-10-02 06:51:00
1:54 AM,44.1,43.0,96,29.90,0.5,Calm,Calm,-,N/A,Fog,Fog,0,2012-10-02 06:54:00
2:02 AM,42.8,42.8,100,29.89,0.2,Calm,Calm,-,N/A,Fog,Fog,0,2012-10-02 07:02:00
2:20 AM,44.6,42.8,93,29.89,1.2,North,4.6,-,N/A,,Clear,350,2012-10-02 07:20:00
2:22 AM,44.6,42.8,93,29.89,3.0,NNW,4.6,-,N/A,,Clear,340,2012-10-02 07:22:00
2:54 AM,46.0,46.0,100,29.90,6.0,Calm,Calm,-,N/A,,Partly Cloudy,0,2012-10-02 07:54:00
2:57 AM,44.6,44.6,100,29.90,1.8,Calm,Calm,-,N/A,,Scattered Clouds,0,2012-10-02 07:57:00
3:13 AM,42.8,42.8,100,29.90,0.5,Calm,Calm,-,N/A,Fog,Fog,0,2012-10-02 08:13:00
3:21 AM,42.8,42.8,100,29.90,0.5,NW,3.5,-,N/A,Fog,Fog,320,2012-10-02 08:21:00
3:26 AM,42.8,42.8,100,29.90,2.0,NNW,3.5,-,N/A,,Partly Cloudy,330,2012-10-02 08:26:00
3:30 AM,42.8,41.0,93,29.90,1.0,NNW,3.5,-,N/A,,Mist,330,2012-10-02 08:30:00
3:37 AM,42.8,42.8,100,29.90,0.5,Calm,Calm,-,N/A,Fog,Fog,0,2012-10-02 08:37:00
3:42 AM,42.8,42.8,100,29.91,1.2,Calm,Calm,-,N/A,,Partly Cloudy,0,2012-10-02 08:42:00
3:48 AM,42.8,42.8,100,29.91,3.0,Calm,Calm,-,N/A,,Clear,0,2012-10-02 08:48:00
3:54 AM,42.1,42.1,100,29.92,5.0,Calm,Calm,-,N/A,,Clear,0,2012-10-02 08:54:00
4:40 AM,42.8,42.8,100,29.91,1.5,Calm,Calm,-,N/A,,Clear,0,2012-10-02 09:40:00
4:54 AM,41.0,39.9,96,29.92,3.0,Calm,Calm,-,N/A,,Clear,0,2012-10-02 09:54:00
6:15 AM,37.4,37.4,100,29.93,1.8,NNW,3.5,-,N/A,,Clear,330,2012-10-02 11:15:00
6:24 AM,39.2,39.2,100,29.93,0.8,Calm,Calm,-,N/A,,Clear,0,2012-10-02 11:24:00
6:42 AM,37.4,37.4,100,29.93,10.0,North,4.6,-,N/A,,Clear,350,2012-10-02 11:42:00
6:54 AM,35.1,35.1,100,29.96,10.0,NNW,4.6,-,N/A,,Clear,330,2012-10-02 11:54:00
7:54 AM,45.0,43.0,93,29.97,10.0,NNW,5.8,-,N/A,,Clear,330,2012-10-02 12:54:00
8:54 AM,48.9,44.1,83,29.98,10.0,NW,4.6,-,N/A,,Clear,310,2012-10-02 13:54:00
9:54 AM,54.0,45.0,72,29.98,10.0,Variable,4.6,-,N/A,,Clear,0,2012-10-02 14:54:00
10:54 AM,57.9,45.0,62,29.97,10.0,NNE,4.6,-,N/A,,Clear,20,2012-10-02 15:54:00
11:54 AM,61.0,42.1,50,29.96,10.0,Calm,Calm,-,N/A,,Clear,0,2012-10-02 16:54:00
12:54 PM,63.0,42.1,46,29.94,10.0,NE,5.8,-,N/A,,Clear,40,2012-10-02 17:54:00
1:54 PM,64.0,42.1,45,29.92,10.0,Calm,Calm,-,N/A,,Clear,0,2012-10-02 18:54:00
2:54 PM,66.0,39.9,38,29.91,10.0,Calm,Calm,-,N/A,,Clear,0,2012-10-02 19:54:00
3:54 PM,66.9,37.0,33,29.91,10.0,Calm,Calm,-,N/A,,Clear,0,2012-10-02 20:54:00
4:54 PM,66.9,37.0,33,29.91,10.0,SSW,4.6,-,N/A,,Clear,200,2012-10-02 21:54:00
5:54 PM,64.9,37.9,37,29.91,10.0,Calm,Calm,-,N/A,,Clear,0,2012-10-02 22:54:00
7:54 PM,54.0,44.1,69,29.94,10.0,SE,4.6,-,N/A,,Clear,130,2012-10-03 00:54:00
8:54 PM,51.1,45.0,80,29.95,10.0,SE,4.6,-,N/A,,Clear,140,2012-10-03 01:54:00
9:54 PM,48.9,45.0,86,29.97,10.0,SE,3.5,-,N/A,,Clear,140,2012-10-03 02:54:00
10:54 PM,45.0,43.0,93,29.98,10.0,Calm,Calm,-,N/A,,Clear,0,2012-10-03 03:54:00
11:54 PM,43.0,41.0,93,29.96,10.0,Calm,Calm,-,N/A,,Clear,0,2012-10-03 04:54:00